sat.trackr.live / text

‹ back to catalog

KUIPER-00436

NORAD 68939 · 2026-098W

PAYLOAD ACTIVE UNKNOWN

§ Identity

Operator
Country
US
Launch date
2026-04-30
Launch site
FRGUI
Launch vehicle
Mass (kg)
RCS (m²)

External: N2YO · Heavens-Above · Gunter

§ Orbital elements

Epoch: 2026-05-24T19:30:31.821984Z

Period
93.94 min
Inclination
51.8747°
Eccentricity
0.0010716
Mean motion
15.32870251 rev/d
Perigee alt
459.9 km
Apogee alt
474.6 km
Semi-major
6,845.4 km
B*
-4.8641e-4
RAAN
180.5886°
Arg perigee
65.0794°
Mean anomaly
295.1304°
Rev number
375

§ Raw data

KUIPER-004361 68939U 26098W   26144.81286831 -.00016047  00000+0 -48641-3 0  99992 68939  51.8747 180.5886 0010716  65.0794 295.1304 15.32870251  3754

JSON: /api/v1/satellites/68939 · /tle

For live sub-satellite position, see the globe view (requires WebGL).

§ Visibility from observer

Set your observer location to see the next 7 days of passes ≥ 10°. The values pass through the URL so the page stays shareable.

No JS? Fill the form by hand. The geolocation button needs JavaScript.